Manteo, NC

12:22 AM EST on December 15, 2017 (GMT -0500)
Dare County Regional

Weather History for KMQI - September, 2012

Change the Weather History Date:

Wednesday, September 19, 2012

  Actual Average Record
Temperature  
Mean Temperature 72 °F -  
Max Temperature 75 °F 76 °F 92 °F (1978)
Min Temperature 69 °F 66 °F 52 °F (1990)
Cooling Degree Days 7    
Growing Degree Days 22 (Base 50)    
Moisture  
Dew Point 62 °F    
Average Humidity 71    
Maximum Humidity 94    
Minimum Humidity 53    
Precipitation  
Precipitation 0.00 in - - ()
Sea Level Pressure  
Sea Level Pressure 29.98 in    
Wind  
Wind Speed 12 mph (NNE)    
Max Wind Speed 22 mph    
Max Gust Speed 28 mph    
Visibility 10 miles    
Events Rain    
Averages and records for this station are not official NWS values.
T = Trace of Precipitation, MM = Missing Value Source: NWS Daily Summary

Daily Weather History Graph

Daily Weather History Graph

Search for Another Location

Airport or City:

Trip Planner

Search our weather history database for the weather conditions in past years. The results will help you decide how hot, cold, wet, or windy it might be!

Date:

Astronomy

Sep. 19, 2012 Rise Set
Actual Time 6:48 AM EDT 7:03 PM EDT
Civil Twilight 6:23 AM EDT 7:28 PM EDT
Nautical Twilight 5:53 AM EDT 7:58 PM EDT
Astronomical Twilight 5:22 AM EDT 8:29 PM EDT
Moon 10:46 AM EDT (9/19) 9:21 PM EDT (9/19)
Length of Visible Light 13h 05m
Length of Day
12h 14m
Waxing Crescent, 17% of the Moon is Illuminated
Sep 19
Waxing Crescent
Sep 22
First Quarter
Sep 29
Full
Oct 8
Last Quarter
Oct 15
New

Hourly Weather History & Observations

Time (EDT) Temp. Dew Point Humidity Pressure Visibility Wind Dir Wind Speed Gust Speed Precip Events Conditions
12:15 AM 73.4 °F 69.8 °F 88% 29.84 in 7.0 mi SW 8.1 mph - N/A Rain Rain
12:35 AM 73.4 °F 69.8 °F 88% 29.83 in 7.0 mi SW 11.5 mph - N/A   Unknown
12:55 AM 73.4 °F 69.8 °F 88% 29.83 in 10.0 mi SW 9.2 mph - N/A   Unknown
1:15 AM 75.2 °F 71.6 °F 89% 29.83 in 10.0 mi SSW 10.4 mph - N/A   Unknown
1:35 AM 75.2 °F 71.6 °F 89% 29.84 in 10.0 mi SW 9.2 mph - N/A   Unknown
1:55 AM 75.2 °F 71.6 °F 89% 29.84 in 10.0 mi SW 10.4 mph - N/A   Unknown
2:15 AM 75.2 °F 71.6 °F 89% 29.84 in 10.0 mi SW 10.4 mph - N/A   Unknown
2:35 AM 75.2 °F 71.6 °F 89% 29.84 in 10.0 mi SW 10.4 mph - N/A   Unknown
2:55 AM 75.2 °F 71.6 °F 89% 29.83 in 10.0 mi SW 10.4 mph - N/A   Unknown
3:15 AM 73.4 °F 69.8 °F 88% 29.83 in 10.0 mi SW 8.1 mph - N/A   Unknown
3:35 AM 73.4 °F 69.8 °F 88% 29.83 in 10.0 mi SW 8.1 mph - N/A   Unknown
3:55 AM 73.4 °F 69.8 °F 88% 29.83 in 10.0 mi SW 11.5 mph - N/A   Unknown
4:15 AM 73.4 °F 69.8 °F 88% 29.84 in 10.0 mi WSW 10.4 mph - N/A   Unknown
4:35 AM 73.4 °F 69.8 °F 88% 29.85 in 10.0 mi West 9.2 mph - N/A   Unknown
4:55 AM 73.4 °F 69.8 °F 88% 29.85 in 10.0 mi West 6.9 mph - N/A   Unknown
5:15 AM 73.4 °F 69.8 °F 88% 29.86 in 10.0 mi West 5.8 mph - N/A   Unknown
5:35 AM 73.4 °F 69.8 °F 88% 29.87 in 10.0 mi West 6.9 mph - N/A   Unknown
5:55 AM 71.6 °F 69.8 °F 94% 29.88 in 10.0 mi WNW 3.5 mph - N/A   Unknown
6:15 AM 71.6 °F 68.0 °F 88% 29.89 in 10.0 mi WNW 3.5 mph - N/A   Unknown
6:35 AM 71.6 °F 68.0 °F 88% 29.90 in 10.0 mi NW 3.5 mph - N/A   Unknown
6:55 AM 71.6 °F 68.0 °F 88% 29.91 in 10.0 mi NW 3.5 mph - N/A   Unknown
7:15 AM 71.6 °F 68.0 °F 88% 29.91 in 10.0 mi Calm Calm - N/A   Unknown
7:35 AM 71.6 °F 68.0 °F 88% 29.92 in 10.0 mi NNW 3.5 mph - N/A   Unknown
7:55 AM 71.6 °F 66.2 °F 83% 29.93 in 10.0 mi NNE 10.4 mph - N/A   Unknown
8:15 AM 71.6 °F 64.4 °F 78% 29.95 in 10.0 mi North 12.7 mph 21.9 mph N/A   Unknown
8:35 AM 71.6 °F 64.4 °F 78% 29.95 in 10.0 mi NNE 16.1 mph 21.9 mph N/A   Unknown
8:55 AM 71.6 °F 60.8 °F 69% 29.96 in 10.0 mi NNE 17.3 mph 23.0 mph N/A   Unknown
9:15 AM 71.6 °F 60.8 °F 69% 29.97 in 10.0 mi NNE 17.3 mph 26.5 mph N/A   Unknown
9:35 AM 71.6 °F 60.8 °F 69% 29.98 in 10.0 mi North 17.3 mph 27.6 mph N/A   Unknown
9:55 AM 71.6 °F 59.0 °F 64% 29.99 in 10.0 mi NNE 21.9 mph 26.5 mph N/A   Unknown
10:15 AM 71.6 °F 60.8 °F 69% 30.00 in 10.0 mi NNE 21.9 mph 27.6 mph N/A   Unknown
10:35 AM 71.6 °F 59.0 °F 64% 30.01 in 10.0 mi NNE 20.7 mph 27.6 mph N/A   Unknown
10:55 AM 71.6 °F 59.0 °F 64% 30.01 in 10.0 mi NNE 17.3 mph 25.3 mph N/A   Unknown
11:15 AM 73.4 °F 59.0 °F 61% 30.02 in 10.0 mi NNE 18.4 mph 24.2 mph N/A   Unknown
11:35 AM 73.4 °F 59.0 °F 61% 30.02 in 10.0 mi NNE 17.3 mph 27.6 mph N/A   Unknown
11:55 AM 71.6 °F 57.2 °F 60% 30.03 in 10.0 mi NE 18.4 mph 26.5 mph N/A   Unknown
12:15 PM 71.6 °F 57.2 °F 60% 30.04 in 10.0 mi NE 16.1 mph 23.0 mph N/A   Unknown
12:35 PM 73.4 °F 57.2 °F 57% 30.04 in 10.0 mi NE 16.1 mph 23.0 mph N/A   Unknown
12:55 PM 73.4 °F 55.4 °F 53% 30.04 in 10.0 mi NNE 16.1 mph 26.5 mph N/A   Unknown
1:15 PM 73.4 °F 57.2 °F 57% 30.04 in 10.0 mi NNE 15.0 mph 21.9 mph N/A   Unknown
1:35 PM 75.2 °F 59.0 °F 57% 30.04 in 10.0 mi NNE 16.1 mph 24.2 mph N/A   Unknown
1:55 PM 73.4 °F 59.0 °F 61% 30.04 in 10.0 mi NNE 17.3 mph 24.2 mph N/A   Unknown
2:15 PM 73.4 °F 59.0 °F 61% 30.04 in 10.0 mi NE 15.0 mph 23.0 mph N/A   Unknown
2:35 PM 73.4 °F 59.0 °F 61% 30.03 in 10.0 mi NNE 21.9 mph 27.6 mph N/A   Unknown
2:55 PM 73.4 °F 59.0 °F 61% 30.03 in 10.0 mi NNE 17.3 mph 24.2 mph N/A   Unknown
3:15 PM 73.4 °F 59.0 °F 61% 30.04 in 10.0 mi NE 16.1 mph 25.3 mph N/A   Unknown
3:35 PM 73.4 °F 57.2 °F 57% 30.04 in 10.0 mi NNE 17.3 mph 23.0 mph N/A   Unknown
3:55 PM 71.6 °F 53.6 °F 53% 30.05 in 10.0 mi NNE 15.0 mph 21.9 mph N/A   Unknown
4:15 PM 71.6 °F 55.4 °F 57% 30.05 in 10.0 mi NNE 15.0 mph 21.9 mph N/A   Unknown
4:35 PM 71.6 °F 55.4 °F 57% 30.05 in 10.0 mi NNE 16.1 mph 23.0 mph N/A   Unknown
4:55 PM 71.6 °F 57.2 °F 60% 30.06 in 10.0 mi NNE 13.8 mph 18.4 mph N/A   Unknown
5:15 PM 71.6 °F 57.2 °F 60% 30.06 in 10.0 mi NNE 15.0 mph 23.0 mph N/A   Unknown
5:35 PM 71.6 °F 57.2 °F 60% 30.06 in 10.0 mi NNE 12.7 mph 21.9 mph N/A   Unknown
5:55 PM 71.6 °F 59.0 °F 64% 30.07 in 10.0 mi NNE 15.0 mph - N/A   Unknown
6:15 PM 69.8 °F 59.0 °F 68% 30.07 in 10.0 mi NNE 15.0 mph 21.9 mph N/A   Unknown
6:55 PM 69.8 °F 57.2 °F 64% 30.06 in 10.0 mi NE 15.0 mph 20.7 mph N/A   Unknown
7:15 PM 69.8 °F 55.4 °F 60% 30.07 in 10.0 mi NE 12.7 mph 20.7 mph N/A   Unknown
7:35 PM 69.8 °F 55.4 °F 60% 30.07 in 10.0 mi NE 13.8 mph 20.7 mph N/A   Unknown
7:55 PM 69.8 °F 55.4 °F 60% 30.08 in 10.0 mi NE 10.4 mph 17.3 mph N/A   Unknown
8:15 PM 69.8 °F 55.4 °F 60% 30.08 in 10.0 mi NE 13.8 mph 17.3 mph N/A   Unknown
8:35 PM 69.8 °F 55.4 °F 60% 30.09 in 10.0 mi NE 12.7 mph 21.9 mph N/A   Unknown
8:55 PM 69.8 °F 55.4 °F 60% 30.08 in 10.0 mi NNE 17.3 mph 21.9 mph N/A   Unknown
9:15 PM 69.8 °F 55.4 °F 60% 30.09 in 10.0 mi NE 16.1 mph 23.0 mph N/A   Unknown
9:35 PM 69.8 °F 55.4 °F 60% 30.09 in 10.0 mi NE 13.8 mph 17.3 mph N/A   Unknown
9:55 PM 69.8 °F 55.4 °F 60% 30.09 in 10.0 mi NE 11.5 mph - N/A   Unknown
10:15 PM 69.8 °F 55.4 °F 60% 30.09 in 10.0 mi NNE 11.5 mph 20.7 mph N/A   Unknown
10:35 PM 69.8 °F 55.4 °F 60% 30.09 in 10.0 mi NNE 15.0 mph 19.6 mph N/A   Unknown
10:55 PM 69.8 °F 55.4 °F 60% 30.10 in 10.0 mi NE 10.4 mph - N/A   Unknown
11:15 PM 69.8 °F 57.2 °F 64% 30.10 in 10.0 mi NE 10.4 mph 16.1 mph N/A   Unknown
11:35 PM 69.8 °F 57.2 °F 64% 30.10 in 10.0 mi NNE 12.7 mph - N/A   Unknown
11:55 PM 69.8 °F 57.2 °F 64% 30.10 in 10.0 mi NE 13.8 mph 17.3 mph N/A   Unknown